TimeEDT,TemperatureF,Dew PointF,Humidity,Sea Level PressureIn,VisibilityMPH,Wind Direction,Wind SpeedMPH,Gust SpeedMPH,PrecipitationIn,Events,Conditions,WindDirDegrees,DateUTC
12:53 AM,61.0,-9999,N/A,29.90,5.0,SW,9.2,-,0.05,Rain,Light Rain,220,2012-10-14 04:53:00
1:02 AM,60.8,-9999,N/A,29.89,5.0,SW,9.2,-,0.00,Rain,Light Rain,220,2012-10-14 05:02:00
1:16 AM,60.8,-9999,N/A,29.89,5.0,SW,8.1,-,0.00,,Haze,220,2012-10-14 05:16:00
1:53 AM,61.0,61.0,100,29.88,6.0,SSW,6.9,-,0.00,,Overcast,210,2012-10-14 05:53:00
2:53 AM,62.1,62.1,100,29.88,4.0,SSW,9.2,-,N/A,,Overcast,210,2012-10-14 06:53:00
3:40 AM,62.6,60.8,94,29.86,5.0,SSW,6.9,-,0.01,,Mostly Cloudy,210,2012-10-14 07:40:00
3:53 AM,62.1,61.0,96,29.86,6.0,SW,8.1,-,0.01,,Mostly Cloudy,220,2012-10-14 07:53:00
4:35 AM,62.6,62.6,100,29.85,6.0,SSW,8.1,-,0.00,Rain,Light Rain,210,2012-10-14 08:35:00
4:53 AM,63.0,62.1,97,29.86,6.0,SSW,9.2,-,0.00,Rain,Light Rain,210,2012-10-14 08:53:00
5:53 AM,63.0,62.1,97,29.85,6.0,South,5.8,-,0.00,,Overcast,190,2012-10-14 09:53:00
6:53 AM,64.0,62.1,93,29.85,7.0,SSW,5.8,-,N/A,,Mostly Cloudy,200,2012-10-14 10:53:00
7:11 AM,62.6,60.8,94,29.84,7.0,South,6.9,-,N/A,,Mostly Cloudy,190,2012-10-14 11:11:00
7:53 AM,63.0,61.0,93,29.83,8.0,SSW,11.5,-,N/A,,Mostly Cloudy,200,2012-10-14 11:53:00
8:13 AM,64.4,60.8,88,29.82,7.0,SSW,13.8,-,N/A,,Partly Cloudy,200,2012-10-14 12:13:00
8:53 AM,64.0,60.1,87,29.82,9.0,SSW,13.8,20.7,N/A,,Mostly Cloudy,210,2012-10-14 12:53:00
9:53 AM,64.9,60.1,84,29.80,10.0,SSW,16.1,23.0,N/A,,Mostly Cloudy,200,2012-10-14 13:53:00
10:10 AM,64.4,59.0,83,29.79,10.0,South,11.5,26.5,N/A,,Mostly Cloudy,190,2012-10-14 14:10:00
10:53 AM,64.9,59.0,81,29.77,10.0,South,17.3,24.2,N/A,,Partly Cloudy,190,2012-10-14 14:53:00
11:53 AM,66.9,59.0,76,29.71,10.0,South,21.9,33.4,N/A,,Clear,190,2012-10-14 15:53:00
12:53 PM,69.1,59.0,70,29.69,10.0,SSW,17.3,31.1,0.00,Rain,Light Rain,200,2012-10-14 16:53:00
1:53 PM,66.9,59.0,76,29.69,9.0,SSW,18.4,29.9,0.01,Rain,Light Rain,210,2012-10-14 17:53:00
2:53 PM,66.9,57.9,73,29.66,10.0,SSW,23.0,33.4,0.00,Rain,Light Rain,210,2012-10-14 18:53:00
3:53 PM,66.2,60.8,83,29.62,9.0,SSW,19.6,28.8,N/A,Rain,Light Rain,200,2012-10-14 19:53:00
4:53 PM,68.0,60.1,76,29.57,10.0,South,20.7,31.1,0.00,,Clear,190,2012-10-14 20:53:00
5:53 PM,68.0,59.0,73,29.55,10.0,South,17.3,31.1,N/A,,Mostly Cloudy,180,2012-10-14 21:53:00
6:53 PM,66.9,59.0,76,29.53,10.0,SSW,16.1,32.2,N/A,,Partly Cloudy,200,2012-10-14 22:53:00
7:53 PM,66.9,60.1,79,29.51,10.0,SSW,17.3,34.5,0.01,Rain,Light Rain,210,2012-10-14 23:53:00
8:53 PM,64.9,59.0,81,29.48,10.0,SSW,21.9,32.2,0.02,,Clear,200,2012-10-15 00:53:00
9:53 PM,66.0,57.9,75,29.45,10.0,South,20.7,27.6,N/A,,Unknown,190,2012-10-15 01:53:00
9:58 PM,66.2,57.2,73,29.45,10.0,SSW,15.0,26.5,N/A,,Overcast,200,2012-10-15 01:58:00
10:53 PM,64.9,55.9,73,29.44,10.0,SW,18.4,33.4,N/A,,Overcast,220,2012-10-15 02:53:00
11:50 PM,62.6,53.6,72,29.45,10.0,WSW,24.2,43.7,N/A,,Overcast,240,2012-10-15 03:50:00
11:53 PM,62.1,53.1,72,29.45,10.0,WSW,25.3,39.1,N/A,,Overcast,240,2012-10-15 03:53:00